Regional Weather Roundup
Issued by NWS

Home | Current Version | Previous Version | Text Only | Print | Product List | Glossary Off
Versions: 1 2 3 4 5 6 7 8 9 10 11 12 13 14 15 16 17 18 19 20 21 22 23 24 25 26 27 28 29 30 31 32 33 34 35 36 37 38 39 40 41 42 43 44 45 46 47 48 49 50

000
ASUS45 KSLC 282010
RWRUT

UTAH REGIONAL WEATHER ROUNDUP
NATIONAL WEATHER SERVICE SALT LAKE CITY UT
200 PM MDT MON JUL 28 2014

UTZ001>011-023>025-282100-

NORTHERN UTAH

CITY           SKY/WX    TMP DP  RH WIND       PRES   REMARKS
HILL AFB       NOT AVBL
LOGAN          SUNNY     91  49  23 MISG      30.17F
OGDEN          PTSUNNY   88  49  25 VRB6      30.18F
PROVO AIRPORT  PTSUNNY   88  54  31 VRB5      30.20F
SALT LAKE CITY CLOUDY    90  47  22 N12       30.14F
VERNAL         PTSUNNY   84  48  28 CALM      30.25F
WENDOVER       CLOUDY    91  45  19 SE10      30.15F
HEBER CITY     CLOUDY    86  43  22 NE7       30.25F
WEST JORDAN    MOSUNNY   91  57  31 S5        30.19F HX  90

$$

UTZ012>022-026-027-282100-

SOUTHERN UTAH

CITY           SKY/WX    TMP DP  RH WIND       PRES   REMARKS
BRYCE CANYON   PTSUNNY   70  52  52 SW5       30.46F
CEDAR CITY     PTSUNNY   79  52  38 CALM      30.31F
MILFORD        PTSUNNY   84  51  31 SW17G30   30.26F
MOAB/CYNLANDS  CLOUDY    82  55  39 W21G28    30.23F
PRICE          MOSUNNY   83  49  30 SE10      30.31F
ST GEORGE      CLOUDY    91  54  27 W5        30.14F
KANAB            N/A     84  48  28 S10       30.28F

$$

REGIONAL REPORTS     COLORADO/ARIZONA

CITY           SKY/WX    TMP DP  RH WIND       PRES   REMARKS
CRAIG, CO      MOSUNNY   82  40  22 NE6       30.31F
GRAND JUNCTION PTSUNNY   85  52  32 NW8       30.24F
RIFLE          PTSUNNY   86  49  27 NW13      30.27F
MONTROSE       PTSUNNY   87  51  28 W13       30.32F
CORTEZ         SUNNY     83  50  31 VRB6      30.35F
PAGE, AZ       PTSUNNY   91  51  25 W8        30.20F
GRAND CANYON   PTSUNNY   75  53  46 S7        30.41F
KINGMAN        PTSUNNY   78  60  53 E14       30.18S THUNDER
FLAGSTAFF      CLOUDY    68  52  56 S6        30.45F

$$

REGIONAL REPORTS    NEVADA/IDAHO/WYOMING

CITY           SKY/WX    TMP DP  RH WIND       PRES   REMARKS
LAS VEGAS, NV  MOSUNNY   93  57  29 VRB5      30.05F HX  91
ELY            LGT RAIN  70  52  52 S22G32    30.38R
ELKO           MOSUNNY   90  41  18 VRB7      30.20F
POCATELLO, ID  MOSUNNY   87  40  19 W10       30.21F
BURLEY         CLOUDY    81  52  36 SE3       30.18F
EVANSTON, WY   PTSUNNY   81  42  25 VRB3      30.37F
ROCK SPRINGS   MOSUNNY   89  29  11 E10       30.33F

$$



USA.gov is the U.S. government's official web portal to all federal, state and local government web resources and services.